Miscellaneous Local Product
Issued by NWS Hastings, NE

Home | Current Version | Previous Version | Graphics & Text | Print | Product List | Glossary On
Versions: 1 2 3 4 5 6 7 8 9 10 11 12 13 14 15 16 17 18 19 20 21 22 23 24 25 26 27 28 29 30 31 32 33 34 35 36 37 38 39 40 41 42 43 44 45 46 47 48 49 50
340
AXUS43 KGID 252202
MISGRI

GID CWA HOURLY WEATHER ROUNDUP
NATIONAL WEATHER SERVICE HASTINGS NE
500 PM CDT SUN JUN 25 2017

NOTE: "FAIR" INDICATES FEW OR NO CLOUDS BELOW 12,000 FEET WITH NO
SIGNIFICANT WEATHER AND/OR OBSTRUCTIONS TO VISIBILITY.

...SOUTH CENTRAL NEBRASKA...

CITY           SKY/WX    TMP DP  RH WIND       PRES   REMARKS
GRAND ISLAND   SUNNY     75  39  27 SE9       30.27F
HASTINGS       SUNNY     75  41  29 VRB5      30.29F
KEARNEY        SUNNY     75  39  27 CALM      30.28F
ORD            SUNNY     77  33  20 CALM      30.24F
YORK           SUNNY     75  39  27 CALM      30.27F
AURORA         SUNNY     76  39  26 NW3       30.27F
LEXINGTON      SUNNY     75  44  32 S10       30.28F
HOLDREGE       SUNNY     70  45  39 S10G16    30.29F
HEBRON         SUNNY     74  47  38 SW7       30.28F

...NEBRASKA PANHANDLE...

CITY           SKY/WX    TMP DP  RH WIND       PRES   REMARKS
CHADRON        PTSUNNY   80  39  23 E6        30.21F
ALLIANCE       PTSUNNY   78  38  23 VRB6      30.25F
SCOTTSBLUFF    MOSUNNY   78  42  27 VRB6      30.26F
SIDNEY         MOSUNNY   72  49  44 SE8       30.31F

...WESTERN AND NORTH CENTRAL NEBRASKA...

CITY           SKY/WX    TMP DP  RH WIND       PRES   REMARKS
VALENTINE      PTSUNNY   79  32  18 W9G20     30.22F
AINSWORTH      PTSUNNY   77  39  25 NW8       30.24F
ONEILL         SUNNY     76  38  26 SW7       30.26S
BROKEN BOW     PTSUNNY   77  39  25 SE6       30.26F
IMPERIAL       PTSUNNY   68  51  54 S14       30.30F
NORTH PLATTE   SUNNY     78  46  32 VRB6      30.26F
MCCOOK         MOSUNNY   71  47  42 S14G25    30.29F

...EASTERN NEBRASKA...

CITY           SKY/WX    TMP DP  RH WIND       PRES   REMARKS
NORFOLK        SUNNY     75  40  28 N12       30.25F
SO SIOUX CITY  SUNNY     74  41  30 N7        30.23F
TEKAMAH        SUNNY     76  36  23 NW8       30.23F
COLUMBUS       SUNNY     75  39  27 N6        30.26F
ALBION         SUNNY     76  33  20 CALM      30.26F
OMAHA EPPLEY   MOSUNNY   77  41  27 NW12G20   30.24F
OFFUTT AFB     SUNNY     75  42  29 N5        30.24F
MILLARD        SUNNY     77  44  31 N6        30.25S
LINCOLN        SUNNY     78  41  26 NW8       30.26F
NEBRASKA CITY  SUNNY     75  45  33 N10       30.26F
BEATRICE       SUNNY     77  41  27 NW5       30.26F
FALLS CITY     SUNNY     76  47  35 NW8       30.25F

...NORTHERN KANSAS...

CITY           SKY/WX    TMP DP  RH WIND       PRES   REMARKS
GOODLAND       CLOUDY    61  57  87 E14       30.31F
HILL CITY      LGT RAIN  62  59  90 SE7       30.32R FOG
NORTON         MOCLDY    68  46  45 SE10      30.30
PHILLIPSBURG   SUNNY     70  45  40 SE7       30.30F
SMITH CENTER   MOSUNNY   70  45  40 SE8       30.30F
HAYS           CLOUDY    64  59  83 E15       30.28F
RUSSELL        CLOUDY    64  54  69 E16       30.28F
CONCORDIA      CLOUDY    62  54  74 S6        30.30F
SALINA         CLOUDY    64  54  69 E10       30.31F
TOPEKA         LGT RAIN  64  53  67 NW7       30.30S



USA.gov is the U.S. government's official web portal to all federal, state and local government web resources and services.